[[{"header":{"parameterUnit":"m.s-1","parameterCategory":2,"la1":30.2991,"la2":30.254,"lo1":-89.0895,"lo2":-89.0444,"dy":0.0017,"dx":0.0017,"nx":28,"ny":28,"refTime":"2024-06-10T21:00:00:Z","depth":"0","parameterNumber":2,"parameterNumberName":"U-component_of_CURRENTS"},"data":[0,0,0,0,0,0,0,0,0,0,0,0,0,0,0,0,0,0,0,0,0,0,0,0,0,0,0,0,0,0,0,0,0,0,0,0,0,0,0,0,0,0,0,0,0,0,0,0,0,0,0,0,0,0,0,0,0,0,0.4228,0.4234,0,0.4666,0.467,0.4674,0.4774,0.4773,0.4771,0.4769,0.4787,0.4789,0.4791,0,0,0,0,0,0,0,0,0,0,0,0,0,0.3662,0.3669,0.4227,0.4234,0.4241,0.4665,0.467,0.4674,0.4775,0.4773,0.4771,0.4769,0.4786,0.4789,0.4791,0,0,0,0,0,0,0,0,0,0,0,0,0,0.3969,0.3672,0.4226,0.4354,0.4371,0.4665,0.467,0.4676,0.4775,0.4773,0.477,0.4768,0.4786,0.4788,0.4791,0.4858,0,0,0.48,0.4802,0,0,0,0,0,0,0,0,0.3951,0.3988,0.4328,0.4346,0.4365,0.4677,0.4479,0.4721,0.4776,0.4605,0.4769,0.4767,0.4723,0.4731,0.4803,0.4859,0.486,0.4801,0.4802,0.4804,0.4805,0,0,0,0,0,0,0,0.393,0.3971,0.4385,0.4336,0.4359,0.4454,0.4491,0.4526,0.4652,0.462,0.4632,0.4706,0.4727,0.48,0.4803,0.486,0.4801,0.4803,0.4805,0.4806,0.4946,0.4947,0,0,0,0,0,0,0.3902,0.3951,0.4372,0.44,0.4166,0.4466,0.4508,0.4566,0.4662,0.4682,0.4708,0.471,0.4796,0.4799,0.4803,0.4866,0.4804,0.4806,0.4808,0.4944,0.4946,0.4948,0,0,0,0,0,0,0.3887,0.3934,0.4354,0.4198,0.426,0.4479,0.4544,0.4577,0.4659,0.4736,0.4744,0.4759,0.4794,0.4799,0.4857,0.4867,0.4808,0.4811,0.4941,0.4944,0.4947,0.5003,0,0,0,0,0,0,0.3869,0.3926,0.3964,0.4196,0.4268,0.4575,0.455,0.4588,0.4716,0.4721,0.4782,0.4782,0.4793,0.4853,0.486,0.487,0.4813,0.4939,0.4943,0.4946,0.4999,0.5008,0.5015,0,0,0,0,0,0.3847,0.3958,0.3962,0.4016,0.4311,0.4582,0.4629,0.4763,0.472,0.481,0.4815,0.4781,0.4879,0.4859,0.4866,0.4876,0.4937,0.4942,0.4946,0.4995,0.5006,0.5015,0,0,0,0,0,0,0.3765,0.3987,0.3996,0.4171,0.4363,0.4605,0.4727,0.477,0.4856,0.4823,0.4828,0.4834,0.4886,0.4883,0.4859,0.4928,0.4893,0.4899,0.4928,0.4938,0.4946,0.4956,0.4815,0,0,0,0,0,0.3752,0.3869,0.4093,0.4232,0.4329,0.4501,0.462,0.47,0.4818,0.4855,0.4882,0.4889,0.4917,0.4926,0.4967,0.5012,0.5024,0.5017,0.5026,0.5032,0.5047,0.5093,0.5107,0.4962,0.4962,0.4962,0,0,0.3758,0.39,0.3964,0.4219,0.4366,0.4539,0.4566,0.4767,0.4845,0.4834,0.4918,0.4932,0.4941,0.5002,0.5019,0.4992,0.5081,0.5038,0.5043,0.5054,0.5099,0.5113,0.5125,0.4965,0.4965,0.4964,0,0,0.3878,0.3954,0.4101,0.4253,0.4489,0.4592,0.464,0.4854,0.4886,0.4993,0.497,0.5,0.5064,0.5074,0.5079,0.5155,0.5133,0.5147,0.5185,0.523,0.5242,0.5253,0.529,0.5303,0.5137,0.5138,0.5138,0,0.3869,0.4065,0.4195,0.438,0.449,0.4602,0.4756,0.4842,0.502,0.5033,0.5021,0.5102,0.5101,0.5143,0.5166,0.5171,0.5194,0.5143,0.524,0.5251,0.5261,0.5296,0.531,0.5141,0.514,0.514,0.514,0,0.4116,0.4241,0.4358,0.4567,0.47,0.4868,0.4985,0.5055,0.5062,0.513,0.5182,0.5205,0.5247,0.5239,0.5226,0.5282,0.5277,0.5254,0.5212,0.5279,0.5312,0.5325,0.5145,0.5144,0.5143,0.5143,0,0,0.4157,0.4457,0.449,0.4555,0.4785,0.4913,0.5011,0.5145,0.5168,0.5269,0.5306,0.5354,0.5351,0.5356,0.5331,0.5354,0.5434,0.5333,0.5334,0.5365,0.5541,0.538,0.538,0.5431,0.5434,0.5436,0.5536,0,0.4294,0.4587,0.4701,0.489,0.5021,0.5086,0.5159,0.5252,0.5297,0.5357,0.5358,0.5405,0.5395,0.5392,0.5428,0.5433,0.5474,0.541,0.5477,0.5479,0.5323,0.5391,0.5095,0.5146,0.5549,0.5552,0.5553,0,0.4493,0.4637,0.4858,0.4969,0.5028,0.5124,0.519,0.5284,0.5371,0.5391,0.5455,0.5475,0.5531,0.5492,0.5585,0.5548,0.5563,0.5564,0.5567,0.5407,0.5343,0.5145,0.5155,0.5056,0.5574,0.5573,0.5571,0,0.4456,0.4715,0.4849,0.4921,0.5104,0.5129,0.5194,0.529,0.532,0.5421,0.5445,0.5542,0.5557,0.5627,0.5648,0.5631,0.5729,0.5702,0.5584,0.5573,0.5328,0.5289,0.5239,0.5782,0.5782,0.5781,0.5781,0,0.4554,0.4646,0.4827,0.4909,0.4957,0.5096,0.5144,0.5207,0.5302,0.5342,0.5455,0.5485,0.5592,0.5654,0.5688,0.5676,0.5779,0.561,0.5592,0.5337,0.53,0.5205,0.5167,0.5785,0.5784,0.5784,0.5783,0,0.4508,0.4673,0.4778,0.4929,0.4958,0.498,0.5079,0.5122,0.5229,0.5281,0.5312,0.5457,0.5542,0.5628,0.572,0.5687,0.5539,0.5679,0.5366,0.5307,0.5056,0.5031,0.4821,0.4694,0.5568,0.5564,0.5561,0,0.4524,0.46,0.4726,0.4763,0.4824,0.4887,0.4928,0.5047,0.509,0.5247,0.5251,0.5377,0.542,0.551,0.5467,0.5492,0.541,0.5236,0.5135,0.5009,0.4973,0.4842,0.4743,0.4852,0.4843,0.4836,0.4831,0,0.4488,0.4527,0.4615,0.4667,0.4709,0.475,0.4816,0.4831,0.498,0.5013,0.5093,0.5156,0.5217,0.5093,0.5108,0.5098,0.4953,0.5092,0.5045,0.4473,0.4245,0.4121,0.484,0.4769,0.4776,0.478,0.4783,0.4786,0.4415,0.4416,0.4527,0.4544,0.4587,0.4602,0.4561,0.4642,0.466,0.4647,0.4841,0.4792,0.4774,0.4732,0.4704,0.4448,0.4519,0.4303,0.4311,0.4215,0.3979,0.4555,0.4403,0.4406,0.441,0.4413,0.4415,0,0.4295,0.4348,0.4396,0.4404,0.4373,0.4448,0.4465,0.438,0.4302,0.4361,0.4354,0.4242,0.41,0.4091,0.3884,0.3716,0.358,0.3622,0.3394,0.3362,0.3941,0.3796,0.34,0.34,0.34,0.34,0.34,0.3401,0.4257,0.4269,0.4282,0.4193,0.4187,0.4034,0.3999,0.3902,0.3879,0.3695,0.3569,0.3581,0.3665,0.3549,0.3342,0.3251,0.3069,0.2826,0.2958,0.3396,0.3462,0.3524,0.3381,0.2904,0.2903,0.2195,0.219,0.2186]},{"header":{"parameterUnit":"m.s-1","parameterCategory":2,"la1":30.2991,"la2":30.254,"lo1":-89.0895,"lo2":-89.0444,"dy":0.0017,"dx":0.0017,"nx":28,"ny":28,"refTime":"2024-06-10T21:00:00:Z","depth":"0","parameterNumber":3,"parameterNumberName":"V-component_of_CURRENTS"},"data":[0,0,0,0,0,0,0,0,0,0,0,0,0,0,0,0,0,0,0,0,0,0,0,0,0,0,0,0,0,0,0,0,0,0,0,0,0,0,0,0,0,0,0,0,0,0,0,0,0,0,0,0,0,0,0,0,0,0,-0.0316,-0.0318,0,-0.0456,-0.0457,-0.0458,-0.0524,-0.0525,-0.0525,-0.0526,-0.0537,-0.0536,-0.0536,0,0,0,0,0,0,0,0,0,0,0,0,0,-0.0153,-0.0155,-0.0316,-0.0318,-0.0321,-0.0456,-0.0457,-0.0458,-0.0524,-0.0525,-0.0525,-0.0526,-0.0537,-0.0536,-0.0536,0,0,0,0,0,0,0,0,0,0,0,0,0,-0.0244,-0.0156,-0.0315,-0.0376,-0.0383,-0.0456,-0.0457,-0.0458,-0.0524,-0.0525,-0.0526,-0.0527,-0.0537,-0.0537,-0.0536,-0.0512,0,0,-0.0534,-0.0534,0,0,0,0,0,0,0,0,-0.0238,-0.0248,-0.0365,-0.0372,-0.0381,-0.0481,-0.0405,-0.0473,-0.0523,-0.0462,-0.0526,-0.0527,-0.0511,-0.0512,-0.0527,-0.0513,-0.0513,-0.0534,-0.0534,-0.0534,-0.0534,0,0,0,0,0,0,0,-0.0232,-0.0243,-0.0363,-0.0367,-0.0377,-0.0414,-0.0426,-0.0418,-0.047,-0.0467,-0.0474,-0.0503,-0.0513,-0.0527,-0.0527,-0.0514,-0.0534,-0.0534,-0.0534,-0.0533,-0.0399,-0.0395,0,0,0,0,0,0,-0.0228,-0.0237,-0.0359,-0.0368,-0.032,-0.0416,-0.043,-0.0441,-0.0473,-0.0482,-0.0502,-0.0506,-0.0527,-0.0528,-0.0528,-0.044,-0.0534,-0.0533,-0.0533,-0.0402,-0.0398,-0.0394,0,0,0,0,0,0,-0.0223,-0.0237,-0.0353,-0.0313,-0.0332,-0.0418,-0.043,-0.0443,-0.0456,-0.0502,-0.0508,-0.0502,-0.0528,-0.0528,-0.05,-0.0443,-0.0533,-0.0533,-0.0406,-0.0401,-0.0396,-0.0303,0,0,0,0,0,0,-0.0218,-0.0233,-0.0234,-0.0312,-0.0334,-0.0385,-0.043,-0.0446,-0.0476,-0.0482,-0.0504,-0.0507,-0.0529,-0.05,-0.0499,-0.0444,-0.0532,-0.041,-0.0403,-0.0398,-0.031,-0.0295,-0.0283,0,0,0,0,0,-0.0211,-0.0227,-0.0233,-0.0248,-0.0333,-0.0385,-0.0397,-0.0458,-0.0475,-0.0472,-0.0477,-0.0506,-0.046,-0.0498,-0.0497,-0.044,-0.0413,-0.0405,-0.0398,-0.0316,-0.0298,-0.0283,0,0,0,0,0,0,-0.0166,-0.0238,-0.0246,-0.0282,-0.0319,-0.0399,-0.042,-0.0445,-0.045,-0.045,-0.0477,-0.0479,-0.043,-0.0441,-0.0482,-0.0378,-0.0435,-0.0427,-0.0372,-0.0356,-0.0342,-0.033,-0.0532,0,0,0,0,0,-0.0151,-0.0168,-0.0236,-0.0255,-0.0278,-0.0335,-0.0363,-0.0395,-0.0422,-0.0427,-0.0438,-0.0429,-0.0398,-0.0385,-0.0373,-0.0322,-0.0341,-0.0277,-0.0264,-0.0252,-0.0238,-0.0221,-0.0206,-0.037,-0.037,-0.037,0,0,-0.0139,-0.018,-0.019,-0.0244,-0.0281,-0.0283,-0.0352,-0.0388,-0.0361,-0.0422,-0.0381,-0.0388,-0.0374,-0.0319,-0.0295,-0.0322,-0.0213,-0.0243,-0.0234,-0.0226,-0.0212,-0.0197,-0.0183,-0.0365,-0.0366,-0.0367,0,0,-0.0125,-0.0155,-0.0163,-0.0181,-0.0233,-0.0254,-0.0255,-0.0312,-0.031,-0.0281,-0.0299,-0.027,-0.0245,-0.0217,-0.0197,-0.0094,-0.0146,-0.0086,-0.0005,0.0011,0.0024,0.0035,0.0029,0.0039,-0.0075,-0.0075,-0.0074,0,-0.0102,-0.0108,-0.0171,-0.0174,-0.0166,-0.0227,-0.02,-0.0208,-0.0236,-0.021,-0.0251,-0.0181,-0.0187,-0.0085,-0.0057,-0.0063,-0.008,-0.0076,0.0026,0.0036,0.0046,0.0037,0.0047,-0.0069,-0.007,-0.007,-0.0071,0,-0.009,-0.0078,-0.0085,-0.008,-0.008,-0.0072,-0.0086,-0.007,-0.0073,-0.0078,-0.0007,-0.0017,0.0025,0.0039,0.0016,0.0107,0.0063,0.0032,-0.0026,0.0067,0.0053,0.0061,-0.0061,-0.0063,-0.0065,-0.0066,0,0,-0.0058,-0.0068,-0.0061,-0.0008,-0.0017,-0.0001,0.0049,0.0091,0.0149,0.0127,0.0209,0.0243,0.0211,0.0233,0.0217,0.0228,0.0269,0.0158,0.0156,0.0136,0.0285,0.0257,0.0262,0.0241,0.0243,0.0245,0.0245,0,-0.0006,0.0039,0.0019,0.012,0.0165,0.0158,0.0227,0.0258,0.0271,0.0325,0.0321,0.038,0.0297,0.0325,0.0323,0.029,0.0295,0.0271,0.0213,0.0212,0.0162,0.0273,0.027,0.0271,0.0253,0.0254,0.0255,0,0.0031,0.0075,0.0166,0.0277,0.0295,0.0351,0.0473,0.0518,0.0557,0.0562,0.0583,0.0553,0.0588,0.0493,0.0472,0.0453,0.0379,0.0334,0.0332,0.028,0.02,0.0179,0.0285,0.0126,0.0266,0.0266,0.0265,0,0.0125,0.0197,0.0298,0.0328,0.0415,0.0486,0.0544,0.0599,0.0667,0.0712,0.0752,0.0748,0.0778,0.0688,0.0569,0.0522,0.0525,0.0449,0.0359,0.0354,0.0331,0.0321,0.0265,0.0436,0.0436,0.0436,0.0436,0,0.0209,0.0301,0.0359,0.0421,0.0581,0.0601,0.0755,0.079,0.0857,0.0963,0.0885,0.0973,0.0824,0.079,0.0643,0.0541,0.0583,0.0402,0.0371,0.0364,0.0358,0.0198,0.0103,0.0436,0.0436,0.0436,0.0436,0,0.0311,0.0327,0.0464,0.0578,0.0625,0.0746,0.088,0.0977,0.1016,0.1149,0.1172,0.1161,0.1126,0.096,0.0841,0.067,0.0464,0.05,0.049,0.0459,0.0197,0.0108,0.0015,-0.0045,0.0398,0.0398,0.0398,0,0.0372,0.0444,0.0583,0.0667,0.0729,0.0885,0.0988,0.1057,0.1153,0.1287,0.1367,0.1369,0.1413,0.121,0.0917,0.0675,0.0498,0.0478,0.0391,0.0215,0.0093,0.001,-0.0039,0.0391,0.0391,0.0391,0.039,0,0.0527,0.0558,0.067,0.0807,0.0933,0.1072,0.122,0.1317,0.1416,0.1543,0.1708,0.1763,0.157,0.1343,0.0976,0.0783,0.036,0.0463,0.03,0.0114,0.0005,-0.0077,0.0334,0.0388,0.0388,0.0388,0.0388,0.0388,0.0654,0.0748,0.0848,0.0988,0.1107,0.1243,0.137,0.1525,0.1713,0.1909,0.196,0.2088,0.1706,0.1226,0.0931,0.036,0.0359,0.0168,0.0083,0.0022,-0.0054,0.0344,0.0348,0.0348,0.0348,0.0348,0.0348,0,0.0815,0.0885,0.1015,0.1158,0.1273,0.1307,0.1509,0.1639,0.1877,0.2088,0.2252,0.2164,0.1708,0.1191,0.0417,0.0033,-0.0105,-0.0165,-0.0285,-0.031,0.0067,0.0047,-0.0035,-0.0035,-0.0035,-0.0035,-0.0035,-0.0035,0.0905,0.1041,0.1077,0.1268,0.1354,0.151,0.1621,0.1829,0.2014,0.2266,0.2366,0.2422,0.2029,0.0728,-0.0152,-0.0343,-0.0574,-0.0639,-0.074,-0.0505,-0.0481,-0.0458,-0.0499,-0.0694,-0.0695,-0.1081,-0.1085,-0.1088]}],[{"header":{"parameterUnit":"m.s-1","parameterCategory":2,"la1":30.2991,"la2":30.254,"lo1":-89.0895,"lo2":-89.0444,"dy":0.0017,"dx":0.0017,"nx":28,"ny":28,"refTime":"2024-06-10T21:00:00:Z","depth":"2","parameterNumber":2,"parameterNumberName":"U-component_of_CURRENTS"},"data":[0,0,0,0,0,0,0,0,0,0,0,0,0,0,0,0,0,0,0,0,0,0,0,0,0,0,0,0,0,0,0,0,0,0,0,0,0,0,0,0,0,0,0,0,0,0,0,0,0,0,0,0,0,0,0,0,0,0,0.2747,0.2749,0,0.2982,0.2986,0.2989,0.3157,0.3157,0.3158,0.3158,0.3377,0.3382,0.3388,0,0,0,0,0,0,0,0,0,0,0,0,0,0.2727,0.2725,0.2747,0.2749,0.2751,0.2982,0.2986,0.299,0.3157,0.3157,0.3158,0.3158,0.3375,0.3382,0.3388,0,0,0,0,0,0,0,0,0,0,0,0,0,0.2835,0.2725,0.2746,0.2854,0.2866,0.2981,0.2986,0.2991,0.3157,0.3157,0.3158,0.3159,0.3373,0.3381,0.3389,0.3426,0,0,0.3414,0.3417,0,0,0,0,0,0,0,0,0.2828,0.2837,0.2836,0.2847,0.286,0.3032,0.3059,0.3132,0.3156,0.3057,0.3158,0.3159,0.3253,0.3271,0.3329,0.3437,0.3446,0.3415,0.342,0.3423,0.3425,0,0,0,0,0,0,0,0.282,0.2829,0.285,0.2838,0.2853,0.2988,0.3003,0.3076,0.3156,0.3066,0.3076,0.3086,0.3261,0.332,0.3335,0.3449,0.3414,0.3422,0.3427,0.343,0.382,0.3825,0,0,0,0,0,0,0.2755,0.282,0.2843,0.2856,0.2834,0.2986,0.3003,0.2984,0.3156,0.318,0.3085,0.3092,0.3306,0.3325,0.3343,0.3571,0.3423,0.3431,0.3435,0.3815,0.3821,0.3827,0,0,0,0,0,0,0.2753,0.2753,0.2833,0.2838,0.2856,0.2982,0.2963,0.2988,0.3091,0.3169,0.3195,0.3163,0.3307,0.3331,0.3493,0.3574,0.3434,0.3442,0.3808,0.3817,0.3824,0.3916,0,0,0,0,0,0,0.2751,0.2751,0.2793,0.2832,0.2853,0.2954,0.2962,0.2992,0.3088,0.3102,0.3243,0.3263,0.331,0.3481,0.3501,0.3582,0.3448,0.3801,0.3812,0.3822,0.3906,0.3926,0.3943,0,0,0,0,0,0.2749,0.281,0.2792,0.2799,0.2878,0.2956,0.2985,0.3083,0.3091,0.3172,0.3276,0.3261,0.356,0.3493,0.3515,0.36,0.3796,0.3809,0.3821,0.3897,0.3922,0.3943,0,0,0,0,0,0,0.2832,0.2832,0.2814,0.2871,0.2918,0.2982,0.3074,0.3102,0.3249,0.3276,0.3332,0.3362,0.3537,0.3563,0.3486,0.3749,0.3675,0.3692,0.3725,0.3749,0.3767,0.3778,0.3455,0,0,0,0,0,0.285,0.2891,0.2894,0.2942,0.2957,0.3009,0.3072,0.3122,0.3213,0.328,0.3391,0.3501,0.36,0.3668,0.3777,0.391,0.3888,0.3983,0.4002,0.4017,0.4048,0.4115,0.414,0.3868,0.3868,0.3868,0,0,0.2876,0.2897,0.2911,0.2965,0.2999,0.3078,0.3055,0.3152,0.3232,0.3276,0.3484,0.358,0.3654,0.3829,0.3906,0.3861,0.4072,0.4033,0.4045,0.4067,0.413,0.4156,0.4179,0.3876,0.3875,0.3873,0,0,0.293,0.2965,0.2998,0.3074,0.3141,0.3182,0.3203,0.3303,0.3366,0.3513,0.3593,0.3754,0.3892,0.4013,0.4056,0.4242,0.4174,0.4269,0.4369,0.4434,0.4455,0.4474,0.4406,0.4418,0.4272,0.4272,0.4273,0,0.297,0.3017,0.3033,0.3117,0.3212,0.3218,0.3312,0.3367,0.3533,0.3598,0.3589,0.3907,0.3974,0.4184,0.4261,0.4284,0.4261,0.4261,0.4452,0.4471,0.4489,0.4415,0.4427,0.4278,0.4278,0.4277,0.4276,0,0.3027,0.313,0.3173,0.3266,0.3371,0.3476,0.3521,0.3644,0.369,0.374,0.3958,0.4094,0.4282,0.4328,0.4336,0.4543,0.446,0.4461,0.4374,0.452,0.4434,0.4445,0.4287,0.4285,0.4283,0.4281,0,0,0.2972,0.3165,0.3186,0.3299,0.3487,0.356,0.3701,0.3816,0.3887,0.4046,0.4176,0.4389,0.447,0.4536,0.4623,0.4689,0.4761,0.4634,0.4635,0.4528,0.481,0.4596,0.4585,0.479,0.4795,0.4799,0.4668,0,0.3021,0.3172,0.329,0.3516,0.3629,0.3772,0.3888,0.4011,0.4076,0.4212,0.4325,0.4476,0.4531,0.4635,0.4734,0.4789,0.4809,0.479,0.472,0.4716,0.4479,0.46,0.4291,0.414,0.4678,0.468,0.4681,0,0.3062,0.3183,0.3362,0.3658,0.3708,0.3855,0.4079,0.4187,0.4328,0.4371,0.4565,0.4626,0.4846,0.4803,0.4972,0.4957,0.4901,0.4883,0.4878,0.4666,0.4527,0.4104,0.4138,0.4698,0.4697,0.4696,0.4694,0,0.3034,0.3274,0.3419,0.3536,0.3816,0.395,0.4088,0.4251,0.4307,0.4496,0.4545,0.4791,0.4872,0.4965,0.4971,0.4975,0.5028,0.5013,0.4747,0.4724,0.4445,0.4391,0.5058,0.5059,0.5059,0.5059,0.506,0,0.311,0.3258,0.3413,0.3555,0.3733,0.3937,0.4112,0.4261,0.4397,0.4438,0.4645,0.4699,0.4911,0.4959,0.4984,0.4901,0.5043,0.478,0.4715,0.4459,0.4411,0.4905,0.4889,0.5054,0.5055,0.5056,0.5057,0,0.3115,0.3208,0.3438,0.3693,0.3762,0.3898,0.4114,0.4186,0.4337,0.441,0.4468,0.462,0.4685,0.4818,0.4877,0.4835,0.4822,0.4718,0.434,0.4235,0.4449,0.4441,0.4433,0.4425,0.4418,0.4413,0.4408,0,0.3118,0.323,0.3496,0.3573,0.3713,0.3882,0.3967,0.4151,0.4196,0.431,0.432,0.4399,0.4388,0.443,0.442,0.4405,0.4571,0.4037,0.4023,0.4467,0.4405,0.4406,0.4406,0.3644,0.3634,0.3625,0.3618,0,0.3195,0.3288,0.3447,0.3573,0.3695,0.3778,0.3913,0.3913,0.4047,0.4058,0.4022,0.4011,0.4028,0.3871,0.3858,0.382,0.4058,0.3852,0.4464,0.3857,0.3716,0.3657,0.3685,0.3542,0.355,0.3555,0.3559,0.3562,0.3248,0.3309,0.3467,0.3545,0.364,0.3628,0.361,0.3661,0.3628,0.3553,0.365,0.3519,0.354,0.3357,0.3257,0.3223,0.349,0.3377,0.3407,0.3446,0.3386,0.3243,0.296,0.2964,0.2967,0.297,0.2973,0,0.3246,0.3284,0.3395,0.342,0.3371,0.3516,0.3502,0.3372,0.3199,0.3206,0.3113,0.2812,0.2681,0.2755,0.2566,0.2537,0.2573,0.2452,0.2502,0.2579,0.2647,0.2551,0.19,0.1896,0.1893,0.189,0,0,0.3248,0.3277,0.3258,0.3104,0.3116,0.2992,0.2953,0.279,0.2735,0.2506,0.2409,0.2549,0.2645,0.2239,0.2183,0.2009,0.2283,0.193,0.2794,0.293,0.2994,0.3182,0.3119,0,0,0,0,0]},{"header":{"parameterUnit":"m.s-1","parameterCategory":2,"la1":30.2991,"la2":30.254,"lo1":-89.0895,"lo2":-89.0444,"dy":0.0017,"dx":0.0017,"nx":28,"ny":28,"refTime":"2024-06-10T21:00:00:Z","depth":"2","parameterNumber":3,"parameterNumberName":"V-component_of_CURRENTS"},"data":[0,0,0,0,0,0,0,0,0,0,0,0,0,0,0,0,0,0,0,0,0,0,0,0,0,0,0,0,0,0,0,0,0,0,0,0,0,0,0,0,0,0,0,0,0,0,0,0,0,0,0,0,0,0,0,0,0,0,0.0008,0.0009,0,0.006,0.0061,0.0062,0.0015,0.0013,0.0011,0.0008,-0.012,-0.0121,-0.0122,0,0,0,0,0,0,0,0,0,0,0,0,0,-0.006,-0.0058,0.0008,0.0009,0.0009,0.006,0.0061,0.0062,0.0015,0.0013,0.001,0.0007,-0.0119,-0.0121,-0.0123,0,0,0,0,0,0,0,0,0,0,0,0,0,-0.0018,-0.0058,0.0008,-0.001,-0.0012,0.006,0.0061,0.0062,0.0016,0.0013,0.0009,0.0006,-0.0119,-0.0121,-0.0123,-0.0069,0,0,-0.0129,-0.013,0,0,0,0,0,0,0,0,-0.002,-0.0015,-0.0008,-0.0009,-0.0011,0.0025,-0.001,0.0008,0.0017,0.0009,0.0008,0.0005,-0.0088,-0.0092,-0.0068,-0.0075,-0.0081,-0.0129,-0.013,-0.0131,-0.0132,0,0,0,0,0,0,0,-0.0023,-0.0017,0.0032,-0.0007,-0.0009,0.0003,0.0005,-0.0005,-0.0022,0.0009,0.0005,0.0007,-0.009,-0.0066,-0.0072,-0.0082,-0.0129,-0.0131,-0.0132,-0.0133,-0.0206,-0.0207,0,0,0,0,0,0,-0.0036,-0.002,0.003,0.0033,-0.0028,0.0006,0.0008,0.0019,-0.0018,-0.0027,0.001,0.0004,-0.0061,-0.007,-0.0077,-0.0115,-0.0131,-0.0133,-0.0134,-0.0205,-0.0206,-0.0207,0,0,0,0,0,0,-0.0037,-0.0031,0.0028,0.0004,0.0012,0.001,0.0023,0.0022,0.0019,-0.0017,-0.0029,0.0003,-0.0064,-0.0074,-0.0104,-0.0118,-0.0134,-0.0136,-0.0205,-0.0206,-0.0207,-0.0128,0,0,0,0,0,0,-0.0039,-0.0032,-0.0032,0.0004,0.0013,0.0079,0.0026,0.0025,0.0025,0.0018,-0.0025,-0.0039,-0.0067,-0.0101,-0.0106,-0.0121,-0.0138,-0.0204,-0.0205,-0.0206,-0.013,-0.0127,-0.0124,0,0,0,0,0,-0.0042,-0.0035,-0.0032,-0.0026,0.0015,0.0081,0.0089,0.0076,0.0028,0.0055,0.0001,-0.0039,-0.0116,-0.0101,-0.0108,-0.0123,-0.0203,-0.0205,-0.0206,-0.0131,-0.0127,-0.0124,0,0,0,0,0,0,-0.0062,-0.0038,-0.0034,-0.002,0.0033,0.0071,0.0085,0.0074,0.0062,0.0026,-0.0022,-0.0036,-0.0076,-0.0107,-0.0091,-0.0154,-0.0176,-0.0179,-0.0117,-0.0113,-0.011,-0.007,-0.0139,0,0,0,0,0,-0.0063,-0.0054,-0.0007,0.0012,0.0035,0.0061,0.0077,0.0073,0.0069,0.006,0.0024,-0.0035,-0.0077,-0.0102,-0.0135,-0.0146,-0.0149,-0.0173,-0.0169,-0.0166,-0.0141,-0.0121,-0.0112,-0.0212,-0.0212,-0.0212,0,0,-0.0062,-0.005,-0.0042,0.0008,0.0042,0.0114,0.0063,0.0093,0.0129,0.0046,0.0054,-0.0018,-0.0079,-0.0102,-0.0125,-0.0135,-0.0149,-0.0168,-0.0164,-0.0141,-0.0122,-0.0111,-0.0102,-0.0214,-0.0213,-0.0213,0,0,-0.0017,-0.0038,0.0011,0.0054,0.01,0.0124,0.0131,0.0163,0.0149,0.0174,0.0081,0.0017,-0.0011,-0.007,-0.0101,-0.0097,-0.0132,-0.0143,-0.0088,-0.0069,-0.0059,-0.005,-0.0069,-0.0062,-0.014,-0.014,-0.014,0,-0.0012,0.0055,0.0041,0.0113,0.0155,0.0134,0.0223,0.0224,0.0231,0.0214,0.0184,0.0088,0.002,-0.0031,-0.0054,-0.0085,-0.0094,-0.0091,-0.0058,-0.005,-0.0042,-0.0063,-0.0057,-0.0137,-0.0137,-0.0137,-0.0138,0,0.0093,0.0147,0.018,0.0265,0.0308,0.0368,0.0384,0.0367,0.0336,0.0342,0.0286,0.0202,0.0138,0.0083,0.0019,-0.0004,-0.0037,-0.0051,-0.0053,-0.0026,-0.0052,-0.0047,-0.0131,-0.0133,-0.0134,-0.0135,0,0,0.0118,0.0236,0.0252,0.0322,0.0386,0.0438,0.0457,0.0495,0.05,0.0459,0.048,0.0354,0.0272,0.0226,0.0106,0.0099,0.0109,0.004,0.0039,0.0047,0.0127,0.0067,0.0066,0.0106,0.0108,0.011,0.0078,0,0.0225,0.0395,0.0411,0.0561,0.0657,0.0615,0.0656,0.0651,0.0635,0.0636,0.0509,0.049,0.0339,0.0287,0.025,0.0151,0.0131,0.0118,0.0077,0.0076,0.0042,0.0074,0.009,0.0061,0.0083,0.0084,0.0085,0,0.0342,0.0437,0.0617,0.0719,0.0752,0.0808,0.0831,0.0868,0.0826,0.0803,0.0728,0.0648,0.0548,0.046,0.033,0.0326,0.0229,0.0167,0.0165,0.0095,0.0028,0.0039,0.007,0.0094,0.0093,0.0092,0.0092,0,0.0408,0.0573,0.0717,0.0761,0.0871,0.0881,0.0912,0.0905,0.0938,0.0901,0.0923,0.08,0.0755,0.0634,0.0425,0.0396,0.0331,0.0286,0.0141,0.0134,0.0134,0.0124,0.0243,0.0243,0.0243,0.0243,0.0244,0,0.0525,0.0628,0.0748,0.0822,0.0932,0.0973,0.1058,0.1035,0.1067,0.1141,0.1006,0.1017,0.0808,0.0711,0.0519,0.0335,0.0396,0.0168,0.0138,0.0153,0.0146,0.0167,0.0158,0.0242,0.0242,0.0243,0.0243,0,0.0594,0.0683,0.0831,0.0949,0.0976,0.1049,0.1143,0.1206,0.1214,0.1302,0.1297,0.1205,0.1071,0.0843,0.0661,0.047,0.0299,0.0216,0.0217,0.0188,0.0064,0.006,0.0082,0.008,0.0079,0.0077,0.0076,0,0.0657,0.0754,0.0906,0.0976,0.1024,0.113,0.12,0.1251,0.1343,0.1411,0.147,0.1369,0.128,0.0962,0.0643,0.0331,0.0286,0.0141,0.0089,0.0087,0.0056,0.0054,0.0052,0.0104,0.0103,0.0102,0.0102,0,0.0766,0.081,0.0929,0.1055,0.1146,0.1277,0.139,0.1486,0.1575,0.1632,0.1693,0.1631,0.1328,0.1006,0.0579,0.0365,0.0189,0.0116,0.0164,0.0132,0.0102,0.0073,0.0071,0.0095,0.0096,0.0096,0.0097,0.0097,0.0823,0.091,0.104,0.1152,0.1268,0.1419,0.1507,0.1641,0.1773,0.1858,0.1829,0.1718,0.1405,0.0827,0.0485,0.0129,0.0146,0.0008,0.0013,0.0018,0.0017,-0.0015,-0.0046,-0.0047,-0.0047,-0.0047,-0.0047,0,0.0921,0.1013,0.1122,0.1268,0.1381,0.1423,0.1634,0.1709,0.1847,0.1904,0.1896,0.1551,0.121,0.0845,0.0318,0.0005,-0.0012,-0.01,-0.0043,-0.0034,-0.0027,-0.0029,-0.0106,-0.0107,-0.0108,-0.0109,0,0,0.0983,0.1115,0.1161,0.134,0.1418,0.1556,0.1666,0.1773,0.185,0.1853,0.1784,0.1691,0.1286,0.0895,0.0486,0.0189,0.0141,0.012,0.0199,0.0324,0.0334,0.0065,0.0074,0,0,0,0,0]}],[{"header":{"parameterUnit":"m.s-1","parameterCategory":2,"la1":30.2991,"la2":30.254,"lo1":-89.0895,"lo2":-89.0444,"dy":0.0017,"dx":0.0017,"nx":28,"ny":28,"refTime":"2024-06-10T21:00:00:Z","depth":"4","parameterNumber":2,"parameterNumberName":"U-component_of_CURRENTS"},"data":[0,0,0,0,0,0,0,0,0,0,0,0,0,0,0,0,0,0,0,0,0,0,0,0,0,0,0,0,0,0,0,0,0,0,0,0,0,0,0,0,0,0,0,0,0,0,0,0,0,0,0,0,0,0,0,0,0,0,0.121,0.1208,0,0.1033,0.1031,0.1029,0.0995,0.0997,0.0998,0.1,0.0945,0.0943,0.094,0,0,0,0,0,0,0,0,0,0,0,0,0,0.1498,0.1493,0.121,0.1208,0.1205,0.1033,0.1031,0.1028,0.0995,0.0997,0.0999,0.1,0.0946,0.0943,0.094,0,0,0,0,0,0,0,0,0,0,0,0,0,0.1352,0.1492,0.121,0.1168,0.1163,0.1034,0.1031,0.1028,0.0995,0.0997,0.0999,0.1001,0.0947,0.0943,0.0939,0.087,0,0,0.0927,0.0925,0,0,0,0,0,0,0,0,0.1361,0.1342,0.1177,0.1171,0.1165,0.1038,0.1112,0.0981,0.0994,0.1058,0.1,0.1002,0.0986,0.0979,0.0939,0.0868,0.0866,0.0926,0.0924,0.0922,0.0921,0,0,0,0,0,0,0,0.1371,0.1349,0.114,0.1174,0.1167,0.1151,0.1133,0.1087,0.1015,0.1053,0.105,0.103,0.0984,0.0943,0.0938,0.0865,0.0926,0.0923,0.092,0.0918,0.1059,0.1065,0,0,0,0,0,0,0.139,0.1358,0.1145,0.1134,0.127,0.1144,0.1124,0.1077,0.1012,0.1004,0.1028,0.1029,0.0949,0.0943,0.0936,0.0984,0.0922,0.0918,0.0916,0.1052,0.106,0.1067,0,0,0,0,0,0,0.1397,0.1372,0.1152,0.1245,0.1216,0.1137,0.1084,0.1072,0.1068,0.0992,0.0987,0.1042,0.0951,0.0942,0.0971,0.0977,0.0916,0.0912,0.1045,0.1055,0.1063,0.0994,0,0,0,0,0,0,0.1405,0.1375,0.1371,0.1245,0.1211,0.1123,0.1082,0.1067,0.105,0.105,0.1001,0.0996,0.0952,0.0978,0.0967,0.097,0.0909,0.1037,0.1049,0.106,0.0989,0.1,0.101,0,0,0,0,0,0.1416,0.1361,0.137,0.1346,0.1199,0.1124,0.1108,0.1059,0.105,0.1061,0.1054,0.0999,0.1048,0.0977,0.0963,0.0965,0.1032,0.1046,0.1059,0.0984,0.0998,0.101,0,0,0,0,0,0,0.147,0.1349,0.1357,0.127,0.1242,0.1121,0.1097,0.108,0.1071,0.1082,0.1028,0.1023,0.1067,0.1063,0.0988,0.1071,0.105,0.1062,0.0999,0.1011,0.1021,0.1147,0.0906,0,0,0,0,0,0.1487,0.1428,0.1347,0.1295,0.1271,0.1204,0.1173,0.1154,0.1113,0.1109,0.1092,0.1103,0.1104,0.1096,0.1115,0.111,0.1166,0.1139,0.1149,0.1156,0.1269,0.1378,0.1406,0.1113,0.1113,0.1112,0,0,0.1495,0.1424,0.1394,0.1309,0.1263,0.1225,0.119,0.1152,0.1178,0.1105,0.1149,0.1133,0.1128,0.1146,0.1167,0.1135,0.125,0.1174,0.1177,0.129,0.1395,0.1423,0.1447,0.1122,0.112,0.1119,0,0,0.146,0.1422,0.1367,0.1342,0.1295,0.126,0.1268,0.1205,0.1247,0.1293,0.125,0.1289,0.1281,0.1275,0.1267,0.1372,0.1318,0.1351,0.1455,0.1553,0.1577,0.1599,0.1585,0.1606,0.1332,0.1332,0.1332,0,0.1497,0.1406,0.1353,0.1304,0.1297,0.1284,0.1267,0.1287,0.1273,0.1327,0.135,0.1392,0.1377,0.1373,0.1427,0.1388,0.1399,0.1353,0.1557,0.1581,0.1605,0.1587,0.1612,0.133,0.133,0.1331,0.1331,0,0.1399,0.1379,0.1341,0.129,0.1286,0.1269,0.1292,0.1352,0.142,0.1444,0.1549,0.155,0.1597,0.156,0.1524,0.1634,0.1564,0.1549,0.149,0.1628,0.1601,0.1628,0.1328,0.1328,0.1329,0.1329,0,0,0.1372,0.1296,0.1301,0.1321,0.1294,0.1284,0.1362,0.1429,0.15,0.1586,0.1669,0.1737,0.1763,0.1777,0.1699,0.1779,0.1893,0.1742,0.1747,0.167,0.2025,0.1862,0.1873,0.1869,0.1876,0.1882,0.189,0,0.1348,0.1289,0.1259,0.128,0.1269,0.1321,0.1398,0.1477,0.1576,0.1658,0.1738,0.1796,0.1825,0.1819,0.1924,0.1926,0.1984,0.189,0.1967,0.197,0.1759,0.191,0.1907,0.191,0.1916,0.1921,0.1924,0,0.1262,0.126,0.126,0.1328,0.1331,0.1367,0.1509,0.1568,0.1683,0.1782,0.1879,0.1895,0.2027,0.2027,0.2218,0.214,0.2147,0.2141,0.2139,0.2072,0.1864,0.179,0.1972,0.1968,0.1965,0.1961,0.1958,0,0.1267,0.1269,0.1297,0.1304,0.1359,0.1447,0.1506,0.1624,0.172,0.1842,0.1936,0.2048,0.2167,0.2252,0.2328,0.2278,0.2485,0.2389,0.2229,0.2209,0.2366,0.2345,0.2557,0.2557,0.2557,0.2557,0.2557,0,0.122,0.1254,0.1326,0.1343,0.1445,0.1484,0.16,0.1701,0.1821,0.1909,0.2012,0.2103,0.2266,0.2361,0.2365,0.2417,0.2548,0.2333,0.2259,0.232,0.2296,0.2374,0.2353,0.2557,0.2557,0.2557,0.2557,0,0.1176,0.1206,0.1257,0.1378,0.1434,0.1506,0.165,0.172,0.1891,0.2005,0.206,0.2244,0.2394,0.2453,0.2562,0.25,0.2494,0.2443,0.2475,0.2387,0.2111,0.2087,0.2281,0.2276,0.2273,0.227,0.2267,0,0.1125,0.1151,0.1283,0.1328,0.1391,0.1506,0.1579,0.1744,0.1801,0.2062,0.2095,0.2302,0.239,0.2427,0.2498,0.2466,0.2429,0.2377,0.2327,0.2205,0.2112,0.2094,0.2076,0.2261,0.226,0.2259,0.2258,0,0.1066,0.1129,0.1168,0.1275,0.1369,0.1442,0.156,0.1611,0.1786,0.1977,0.2101,0.2156,0.2298,0.2343,0.2355,0.2313,0.2398,0.2337,0.2344,0.2296,0.2182,0.209,0.2076,0.2245,0.2247,0.2248,0.2249,0,0.1038,0.1044,0.1112,0.1204,0.129,0.1348,0.142,0.151,0.1611,0.1891,0.1916,0.2116,0.2283,0.2261,0.2252,0.2238,0.2191,0.2086,0.2104,0.2119,0.2066,0.1898,0.1884,0,0,0,0,0,0.1021,0.1017,0.1045,0.1116,0.1185,0.1264,0.1384,0.1448,0.1632,0.1682,0.1803,0.1894,0.1978,0.2048,0.1999,0.2141,0.2169,0.2068,0.205,0.2174,0.2189,0.2142,0,0,0,0,0,0,0.0997,0.1016,0.1006,0.1023,0.1064,0.1142,0.122,0.1348,0.1356,0.1562,0.1606,0.1778,0.1862,0.2013,0.1975,0.1992,0.1935,0.2179,0.2173,0.2166,0.2179,0.2191,0.2148,0,0,0,0,0]},{"header":{"parameterUnit":"m.s-1","parameterCategory":2,"la1":30.2991,"la2":30.254,"lo1":-89.0895,"lo2":-89.0444,"dy":0.0017,"dx":0.0017,"nx":28,"ny":28,"refTime":"2024-06-10T21:00:00:Z","depth":"4","parameterNumber":3,"parameterNumberName":"V-component_of_CURRENTS"},"data":[0,0,0,0,0,0,0,0,0,0,0,0,0,0,0,0,0,0,0,0,0,0,0,0,0,0,0,0,0,0,0,0,0,0,0,0,0,0,0,0,0,0,0,0,0,0,0,0,0,0,0,0,0,0,0,0,0,0,0.0251,0.0252,0,0.039,0.0391,0.0393,0.0452,0.0451,0.0451,0.0451,0.0528,0.053,0.0532,0,0,0,0,0,0,0,0,0,0,0,0,0,0.0072,0.0074,0.0251,0.0252,0.0254,0.0389,0.0391,0.0393,0.0452,0.0451,0.0451,0.0451,0.0527,0.053,0.0533,0,0,0,0,0,0,0,0,0,0,0,0,0,0.0174,0.0075,0.025,0.0299,0.0305,0.0389,0.0391,0.0394,0.0452,0.0451,0.0451,0.045,0.0526,0.053,0.0533,0.0564,0,0,0.0544,0.0545,0,0,0,0,0,0,0,0,0.0168,0.0181,0.029,0.0296,0.0302,0.0402,0.0357,0.0447,0.0452,0.0397,0.0451,0.045,0.048,0.0487,0.0516,0.0568,0.0571,0.0544,0.0546,0.0548,0.0549,0,0,0,0,0,0,0,0.0161,0.0175,0.0306,0.0292,0.0299,0.0326,0.034,0.0375,0.0439,0.0401,0.0406,0.042,0.0483,0.0513,0.0518,0.0572,0.0544,0.0547,0.0549,0.0551,0.0625,0.0624,0,0,0,0,0,0,0.0142,0.0169,0.0302,0.031,0.0232,0.0329,0.0345,0.0371,0.044,0.045,0.0421,0.0423,0.0507,0.0514,0.0521,0.0552,0.0548,0.0551,0.0553,0.0625,0.0625,0.0624,0,0,0,0,0,0,0.0138,0.0153,0.0296,0.0241,0.0261,0.0333,0.0362,0.0374,0.0413,0.0455,0.0464,0.0447,0.0507,0.0516,0.0562,0.0556,0.0553,0.0556,0.0625,0.0625,0.0624,0.062,0,0,0,0,0,0,0.0132,0.0151,0.017,0.024,0.0264,0.0357,0.0363,0.0377,0.0422,0.0426,0.0481,0.0487,0.0507,0.0556,0.0565,0.056,0.0559,0.0625,0.0625,0.0625,0.062,0.062,0.0619,0,0,0,0,0,0.0126,0.017,0.0171,0.0187,0.0286,0.0359,0.0374,0.0422,0.0423,0.0453,0.0482,0.0486,0.0559,0.0561,0.0571,0.0566,0.0625,0.0625,0.0625,0.0621,0.062,0.0619,0,0,0,0,0,0,0.011,0.0181,0.0184,0.0248,0.0295,0.0368,0.0414,0.0427,0.0477,0.0485,0.0505,0.0515,0.0547,0.0559,0.0559,0.0583,0.0585,0.0587,0.0578,0.0578,0.0577,0.06,0.0562,0,0,0,0,0,0.0109,0.016,0.0216,0.0267,0.0296,0.0348,0.0384,0.0413,0.0463,0.0486,0.0516,0.0539,0.0554,0.0569,0.0597,0.0623,0.0587,0.0619,0.0618,0.0618,0.0641,0.0566,0.056,0.0623,0.0623,0.0623,0,0,0.0113,0.0163,0.0188,0.0266,0.0314,0.0375,0.0372,0.044,0.0478,0.0485,0.055,0.055,0.0562,0.059,0.0602,0.0599,0.0574,0.0617,0.0617,0.0641,0.0565,0.0558,0.0553,0.0623,0.0623,0.0623,0,0,0.0168,0.0196,0.0261,0.0306,0.0379,0.0409,0.0424,0.0494,0.0513,0.0571,0.0562,0.0562,0.0618,0.0606,0.0607,0.0621,0.0577,0.0615,0.0631,0.0556,0.055,0.0545,0.0457,0.0444,0.061,0.061,0.061,0,0.0167,0.0257,0.0288,0.0365,0.0407,0.0422,0.049,0.0517,0.0584,0.0587,0.0598,0.0615,0.0627,0.061,0.0619,0.062,0.0565,0.0632,0.0554,0.0548,0.0542,0.0454,0.044,0.0609,0.0609,0.0609,0.0609,0,0.0274,0.0339,0.0388,0.0478,0.0519,0.0586,0.0614,0.0645,0.0658,0.0662,0.0661,0.0658,0.0661,0.0643,0.0652,0.0602,0.057,0.0562,0.0554,0.0535,0.0444,0.0428,0.0609,0.0609,0.0609,0.0609,0,0,0.029,0.0431,0.0449,0.0496,0.0583,0.0625,0.0679,0.0713,0.0724,0.0737,0.072,0.0732,0.0695,0.0694,0.0656,0.0596,0.0502,0.0572,0.0568,0.0482,0.0316,0.0339,0.0324,0.0469,0.0467,0.0466,0.0255,0,0.0363,0.051,0.0558,0.0665,0.0736,0.0753,0.0793,0.081,0.0812,0.0793,0.0728,0.0718,0.0717,0.0701,0.0638,0.0554,0.0468,0.056,0.0352,0.0346,0.0366,0.0311,0.046,0.0243,0.024,0.0237,0.0235,0,0.0461,0.054,0.067,0.0751,0.078,0.0836,0.0874,0.0906,0.0868,0.0867,0.0819,0.076,0.0686,0.067,0.0509,0.0565,0.0452,0.0367,0.0355,0.0381,0.0343,0.0274,0.0208,0.021,0.0212,0.0214,0.0215,0,0.0478,0.0613,0.0711,0.075,0.0845,0.0887,0.092,0.093,0.095,0.0896,0.0896,0.0778,0.0739,0.0586,0.046,0.0469,0.0248,0.0229,0.0123,0.0121,0.0165,0.0174,0.0076,0.0077,0.0077,0.0078,0.0078,0,0.0551,0.0619,0.0729,0.0787,0.0865,0.0912,0.0973,0.0995,0.0995,0.1,0.0928,0.0891,0.0723,0.0583,0.0431,0.0252,0.0224,0.0122,0.0072,0.0163,0.0175,0.0151,0.0163,0.007,0.0072,0.0073,0.0074,0,0.0567,0.0652,0.0752,0.0856,0.0894,0.0942,0.1036,0.1066,0.1086,0.1084,0.1071,0.0973,0.0812,0.0618,0.0361,0.0253,0.0048,-0.0025,0.0078,0.0039,-0.0039,-0.0026,-0.0182,-0.0183,-0.0184,-0.0185,-0.0185,0,0.0592,0.0659,0.0792,0.0843,0.0902,0.0985,0.1047,0.111,0.114,0.113,0.1112,0.0978,0.0883,0.0536,0.034,0.0023,-0.0008,-0.0123,-0.0068,-0.0031,-0.0065,-0.005,-0.0035,-0.0186,-0.0186,-0.0187,-0.0187,0,0.0608,0.0663,0.0733,0.0858,0.0947,0.1033,0.1119,0.1152,0.12,0.122,0.1139,0.0971,0.0779,0.0525,0.0302,0.0072,-0.0046,-0.0131,-0.0131,-0.0081,-0.0038,-0.0067,-0.0052,-0.0189,-0.0189,-0.0189,-0.0188,0,0.0599,0.0635,0.0747,0.0846,0.0953,0.1048,0.11,0.1139,0.1182,0.1181,0.1136,0.0949,0.0845,0.0545,0.0322,0.0129,0.0073,0.001,0.0002,0.0002,0.0145,0.0232,0.0113,0,0,0,0,0,0.0598,0.0646,0.0726,0.0843,0.0947,0.1026,0.113,0.1171,0.1221,0.1173,0.1166,0.0981,0.0687,0.0549,0.0354,0.0292,0.0031,0.0056,-0.0048,-0.0203,-0.02,-0.0057,0,0,0,0,0,0,0.0598,0.0675,0.0715,0.0828,0.09,0.1027,0.1102,0.1139,0.1109,0.1124,0.0962,0.0923,0.0625,0.079,0.0342,0.0286,0.0192,-0.0072,-0.0076,-0.0204,-0.0202,-0.0199,-0.0052,0,0,0,0,0]}]]